IW4BGV-3 Weather Reports


time (UTC)temp
C
wind
direction
speed
KPH
gust
KPH
rain 1hr
cm
rain 24hr
cm
rain mn
cm
humidity
%
barometer
mb
20260507083529 21 338 1.6 4.8 0.00 0.00 0.00 56 1013.5
20260507083033 21 319 3.2 4.8 0.00 0.00 0.00 56 1013.4
20260507082033 21 254 1.6 12.9 0.00 0.00 0.00 56 1013.3
20260507081528 21 323 4.8 8.0 0.00 0.00 0.00 57 1013.4
20260507081030 21 221 4.8 9.7 0.00 0.00 0.00 57 1013.3
20260507080528 21 278 3.2 9.7 0.00 0.00 0.00 57 1013.3
20260507075529 21 291 1.6 14.5 0.00 0.00 0.00 59 1013.3
20260507075033 20 265 3.2 8.0 0.00 0.00 0.00 61 1013.3
20260507074529 20 188 6.4 11.3 0.00 0.00 0.00 62 1013.3
20260507074030 20 144 1.6 3.2 0.00 0.00 0.00 63 1013.2
20260507073528 20 6 0.0 1.6 0.00 0.00 0.00 64 1013.3
20260507073030 19 208 3.2 4.8 0.00 0.00 0.00 64 1013.3
20260507072528 19 244 3.2 8.0 0.00 0.00 0.00 65 1013.4
20260507070528 18 144 1.6 4.8 0.00 0.00 0.00 72 1013.4
20260507070030 17 315 1.6 4.8 0.00 0.00 0.00 74 1013.3
20260507065537 17 237 3.2 11.3 0.00 0.00 0.00 75 1013.3
20260507065033 17 91 0.0 1.6 0.00 0.00 0.00 77 1013.3
20260507064030 16 78 0.0 4.8 0.00 0.00 0.00 79 1013.2
20260507063528 16 72 0.0 0.0 0.00 0.00 0.00 79 1013.3
20260507063030 15 354 0.0 0.0 0.00 0.00 0.00 78 1013.2
20260507062029 15 171 1.6 4.8 0.00 0.00 0.00 79 1013.2
20260507061528 15 316 0.0 0.0 0.00 0.00 0.00 80 1013.3
20260507061031 15 315 157.7 177.0 0.00 0.00 0.00 80 1013.2
20260507055031 14 169 177.0 177.0 0.00 0.00 0.00 81 1013.0
20260507054531 14 172 177.0 177.0 0.00 0.00 0.00 81 1013.0
20260507054031 14 186 177.0 177.0 0.00 0.00 0.00 81 1013.1
20260507053529 14 310 177.0 177.0 0.00 0.00 0.00 81 1012.9
20260507053030 14 299 177.0 177.0 0.00 0.00 0.00 81 1013.0
20260507052529 14 295 177.0 177.0 0.00 0.00 0.00 81 1012.9
20260507051529 14 316 177.0 177.0 0.00 0.00 0.00 81 1012.7
20260507050529 14 232 177.0 177.0 0.00 0.00 0.00 82 1012.8
20260507050030 14 304 177.0 177.0 0.00 0.00 0.00 82 1012.7
20260507045528 14 202 177.0 177.0 0.00 0.00 0.00 82 1012.7
20260507044529 14 263 177.0 177.0 0.00 0.05 0.00 83 1012.6
20260507044030 14 269 177.0 177.0 0.00 0.05 0.00 83 1012.4
20260507043529 14 292 177.0 177.0 0.00 0.05 0.00 83 1012.3
20260507043031 14 315 177.0 177.0 0.00 0.05 0.00 83 1012.3
20260507042031 14 9 177.0 177.0 0.00 0.05 0.00 82 1012.3
20260507041529 14 287 177.0 177.0 0.00 0.05 0.00 83 1012.3
20260507041030 14 283 173.8 177.0 0.00 0.05 0.00 83 1012.1
20260507040529 13 311 59.5 106.2 0.00 0.05 0.00 82 1012.0
20260507040030 13 313 59.5 106.2 0.00 0.05 0.00 82 1012.0
20260507035533 13 315 4.8 75.6 0.00 0.05 0.00 82 1012.1
20260507035034 13 294 75.6 75.6 0.00 0.05 0.00 82 1012.0
20260507034532 13 20 0.0 0.0 0.00 0.05 0.00 82 1012.0
20260507034036 13 318 78.9 109.4 0.00 0.05 0.00 82 1012.0
20260507033529 13 315 96.6 109.4 0.00 0.05 0.00 82 1012.0
20260507033031 14 314 138.4 177.0 0.00 0.05 0.00 81 1011.9
20260507032530 14 90 106.2 109.4 0.00 0.05 0.00 81 1012.0
20260507032032 14 180 109.4 177.0 0.00 0.05 0.00 81 1011.9
20260507031530 14 311 70.8 109.4 0.00 0.05 0.00 81 1011.8
20260507031030 14 158 0.0 20.9 0.00 0.05 0.00 81 1012.0
20260507030530 14 271 0.0 0.0 0.00 0.05 0.00 81 1012.0
20260507030030 14 263 1.6 41.8 0.00 0.05 0.00 80 1011.9
20260507025529 15 180 4.8 41.8 0.00 0.05 0.00 80 1012.0
20260507025031 15 187 0.0 41.8 0.00 0.05 0.00 80 1012.0
20260507024529 15 283 0.0 41.8 0.00 0.05 0.00 80 1012.0
20260507024032 15 220 4.8 41.8 0.00 0.05 0.00 80 1012.0
20260507023534 15 322 16.1 41.8 0.00 0.05 0.00 80 1011.9
20260507023030 15 316 19.3 41.8 0.00 0.05 0.00 80 1011.7
20260507022529 15 292 0.0 0.0 0.00 0.05 0.00 80 1011.8
20260507022039 15 316 0.0 0.0 0.00 0.05 0.00 80 1011.9
20260507021530 15 135 0.0 0.0 0.00 0.05 0.00 79 1012.0
20260507021030 15 313 1.6 3.2 0.00 0.05 0.00 79 1012.0
20260507020529 15 349 0.0 3.2 0.00 0.05 0.00 79 1012.0
20260507020031 15 316 1.6 1.6 0.00 0.05 0.00 79 1012.0
20260507015529 15 324 0.0 0.0 0.00 0.05 0.00 79 1011.9
20260507015031 15 180 1.6 1.6 0.00 0.05 0.00 78 1011.9
20260507014030 15 308 0.0 3.2 0.00 0.05 0.00 78 1012.0
20260507013529 15 326 0.0 3.2 0.00 0.05 0.00 78 1012.0
20260507013030 15 173 1.6 3.2 0.00 0.05 0.00 78 1011.9
20260507012529 15 303 0.0 0.0 0.00 0.05 0.00 78 1012.1
20260507012030 15 303 0.0 0.0 0.00 0.05 0.00 77 1011.8
20260507011529 15 334 0.0 1.6 0.00 0.05 0.00 77 1011.8
20260507011031 15 89 3.2 3.2 0.00 0.05 0.00 77 1011.9
20260507010529 15 40 0.0 3.2 0.00 0.05 0.00 77 1011.8
20260507010031 16 319 0.0 0.0 0.00 0.05 0.00 76 1011.8
20260507005030 16 334 0.0 0.0 0.00 0.05 0.00 76 1012.0
20260507004529 16 316 0.0 0.0 0.00 0.05 0.00 76 1011.7
20260507004031 16 328 0.0 0.0 0.00 0.05 0.00 76 1012.0
20260507003543 16 344 0.0 0.0 0.00 0.05 0.00 76 1011.9
20260507003030 16 45 0.0 4.8 0.00 0.05 0.00 76 1011.9
20260507002531 16 134 1.6 1.6 0.00 0.05 0.00 75 1012.0
20260507002030 16 51 0.0 0.0 0.00 0.05 0.00 75 1011.9
20260507001543 16 292 0.0 0.0 0.00 0.05 0.00 75 1012.0
20260507000533 16 315 0.0 0.0 0.00 0.05 0.00 75 1012.1
20260507000030 16 84 0.0 0.0 0.00 0.05 0.00 75 1012.1
20260506235530 16 22 0.0 0.0 0.00 0.05 0.00 75 1012.0
20260506234529 16 248 0.0 1.6 0.00 0.05 0.00 74 1012.0
20260506234030 16 278 3.2 4.8 0.00 0.05 0.00 74 1012.0
20260506233529 16 309 3.2 4.8 0.00 0.05 0.00 74 1012.0
20260506233031 16 318 0.0 9.7 0.00 0.05 0.00 74 1012.0
20260506232529 16 325 1.6 8.0 0.00 0.05 0.00 74 1012.0
20260506232032 16 315 1.6 14.5 0.00 0.05 0.00 75 1011.7
20260506231529 16 315 8.0 14.5 0.00 0.05 0.00 75 1011.7
20260506231030 16 277 1.6 8.0 0.00 0.05 0.00 75 1011.9
20260506230030 17 313 4.8 9.7 0.00 0.05 0.00 74 1011.7
20260506225031 17 273 3.2 3.2 0.00 0.05 0.00 72 1012.0
20260506224530 17 289 3.2 4.8 0.00 0.05 0.00 73 1011.9
20260506223031 16 211 3.2 4.8 0.00 0.05 0.00 75 1011.7
20260506222529 16 190 0.0 0.0 0.00 0.05 0.00 75 1011.8
20260506222031 16 150 0.0 0.0 0.00 0.05 0.00 75 1011.8
20260506221529 16 135 0.0 0.0 0.00 0.05 0.00 75 1011.8
20260506221030 16 158 0.0 0.0 0.00 0.05 0.00 75 1011.9
20260506220533 16 158 0.0 0.0 0.00 0.05 0.00 75 1011.9
20260506220031 16 292 0.0 0.0 0.00 0.05 0.00 75 1011.9
20260506215039 16 315 1.6 3.2 0.00 0.05 0.05 76 1011.8
20260506214529 16 338 0.0 3.2 0.00 0.05 0.05 76 1011.9
20260506213529 16 315 3.2 3.2 0.00 0.05 0.05 76 1011.9
20260506213034 16 22 1.6 3.2 0.00 0.05 0.05 76 1011.9
20260506212529 16 29 0.0 3.2 0.00 0.05 0.05 76 1012.1
20260506212030 16 24 1.6 3.2 0.00 0.05 0.05 76 1012.0
20260506211030 16 22 0.0 0.0 0.00 0.05 0.05 76 1011.9
20260506210533 16 106 0.0 1.6 0.00 0.05 0.05 76 1011.8
20260506210034 16 225 0.0 4.8 0.00 0.05 0.05 76 1011.8
20260506205530 16 130 1.6 4.8 0.00 0.05 0.05 76 1012.0
20260506205030 16 140 1.6 3.2 0.00 0.05 0.05 76 1012.0
20260506204529 16 135 0.0 4.8 0.00 0.05 0.05 76 1012.0
20260506203530 16 129 4.8 11.3 0.00 0.05 0.05 76 1011.9
20260506203030 16 135 11.3 14.5 0.00 0.05 0.05 76 1011.8
20260506201529 17 152 4.8 8.0 0.00 0.05 0.05 75 1011.7
20260506201031 17 112 1.6 3.2 0.00 0.05 0.05 75 1011.7
20260506200033 17 111 0.0 0.0 0.00 0.05 0.05 74 1011.7
20260506195036 17 135 0.0 0.0 0.00 0.10 0.05 74 1011.7
20260506194532 17 135 0.0 0.0 0.00 0.10 0.05 74 1011.7
20260506194031 17 135 0.0 3.2 0.00 0.10 0.05 73 1011.6
20260506193032 17 139 0.0 1.6 0.00 0.10 0.05 73 1011.6
20260506192529 17 120 0.0 3.2 0.00 0.10 0.05 72 1011.4
20260506192033 17 168 0.0 0.0 0.00 0.10 0.05 72 1011.4
20260506191529 17 90 0.0 3.2 0.00 0.10 0.05 72 1011.3
20260506191032 17 80 0.0 3.2 0.00 0.10 0.05 72 1011.2
20260506190529 17 112 0.0 4.8 0.00 0.10 0.05 72 1011.1
20260506190030 17 125 1.6 1.6 0.00 0.10 0.05 71 1011.1
20260506185529 17 38 0.0 3.2 0.00 0.10 0.05 71 1011.0
20260506185030 17 4 1.6 3.2 0.00 0.10 0.05 70 1010.9
20260506184530 17 77 0.0 0.0 0.00 0.10 0.05 70 1010.9
20260506184047 17 232 0.0 3.2 0.00 0.10 0.05 70 1010.9
20260506183529 17 334 1.6 4.8 0.00 0.10 0.05 70 1010.6
20260506183031 17 317 1.6 3.2 0.00 0.10 0.05 70 1010.7
20260506182033 17 328 3.2 8.0 0.00 0.20 0.05 70 1010.4
20260506181528 18 324 4.8 14.5 0.00 0.20 0.05 69 1010.3
20260506181032 18 339 9.7 16.1 0.00 0.25 0.05 69 1010.3
20260506180528 18 353 6.4 12.9 0.00 0.30 0.05 68 1010.5
20260506180040 18 354 9.7 14.5 0.00 0.36 0.05 68 1010.2
20260506175029 18 342 8.0 14.5 0.00 0.41 0.05 67 1010.2
20260506174528 19 0 9.7 14.5 0.00 0.41 0.05 66 1009.9
20260506174034 19 342 6.4 12.9 0.00 0.41 0.05 66 1009.9
20260506173528 19 331 1.6 4.8 0.00 0.41 0.05 65 1010.0
20260506173029 19 321 3.2 9.7 0.00 0.46 0.05 65 1009.8
20260506172528 20 337 6.4 11.3 0.00 0.46 0.05 64 1009.8
20260506172030 20 349 1.6 4.8 0.00 0.46 0.05 64 1009.7
20260506171528 20 346 0.0 1.6 0.00 0.46 0.05 64 1009.7
20260506171030 20 8 0.0 3.2 0.00 0.46 0.05 64 1009.8
20260506170527 20 10 3.2 4.8 0.00 0.46 0.05 63 1009.7
20260506170029 20 347 0.0 1.6 0.00 0.46 0.05 63 1009.4
20260506165030 21 355 3.2 4.8 0.00 0.46 0.05 61 1009.5
20260506164530 21 13 1.6 3.2 0.00 0.46 0.05 61 1009.5
20260506163528 21 284 3.2 9.7 0.00 0.46 0.05 60 1009.5
20260506163030 22 318 6.4 14.5 0.00 0.46 0.05 59 1009.7
20260506162528 22 302 1.6 4.8 0.00 0.46 0.05 58 1009.5
20260506161528 22 139 4.8 12.9 0.00 0.46 0.05 57 1009.4
20260506161030 22 149 11.3 14.5 0.00 0.46 0.05 57 1009.5
20260506160528 22 153 9.7 12.9 0.00 0.46 0.05 57 1009.4
20260506160030 22 152 6.4 11.3 0.00 0.46 0.05 56 1009.5
20260506155528 22 151 3.2 11.3 0.00 0.46 0.05 56 1009.5
20260506155029 22 158 9.7 14.5 0.00 0.46 0.05 55 1009.4
20260506154531 22 167 9.7 14.5 0.00 0.46 0.05 55 1009.5
20260506154030 22 157 12.9 19.3 0.00 0.46 0.05 55 1009.4
20260506153528 22 168 8.0 19.3 0.00 0.46 0.05 55 1009.4
20260506152528 22 164 14.5 22.5 0.00 0.46 0.05 56 1009.5
20260506152030 22 150 9.7 16.1 0.00 0.46 0.05 56 1009.5
20260506151530 22 171 4.8 16.1 0.00 0.46 0.05 56 1009.4
20260506151034 22 156 14.5 19.3 0.00 0.46 0.05 56 1009.5
20260506150529 22 132 8.0 14.5 0.00 0.46 0.05 56 1009.3
20260506150030 22 170 9.7 16.1 0.00 0.46 0.05 56 1009.4
20260506144528 22 174 11.3 22.5 0.00 0.46 0.05 56 1009.3
20260506144029 22 180 14.5 19.3 0.00 0.46 0.05 56 1009.3
20260506143529 22 166 16.1 22.5 0.00 0.46 0.05 55 1009.4
20260506142538 23 157 16.1 20.9 0.00 0.46 0.05 54 1009.4
20260506142030 23 178 16.1 27.4 0.00 0.46 0.05 54 1009.3
20260506141529 23 143 16.1 25.7 0.00 0.46 0.05 54 1009.4
20260506141040 23 170 19.3 25.7 0.00 0.46 0.05 54 1009.2
20260506140538 23 185 20.9 27.4 0.00 0.46 0.05 54 1009.6
20260506140033 23 164 19.3 22.5 0.00 0.46 0.05 55 1009.8
20260506135533 23 159 19.3 32.2 0.00 0.46 0.05 55 1009.5
20260506135029 23 155 25.7 35.4 0.00 0.46 0.05 54 1009.8
20260506134529 23 149 20.9 27.4 0.00 0.46 0.05 55 1009.9
20260506134030 23 158 19.3 29.0 0.00 0.46 0.05 56 1010.1
20260506133528 22 205 20.9 27.4 0.00 0.46 0.05 56 1010.0
20260506133030 22 167 11.3 25.7 0.00 0.46 0.05 56 1010.2
20260506132528 22 166 16.1 33.8 0.00 0.46 0.05 56 1010.3
20260506132030 22 150 17.7 33.8 0.00 0.46 0.05 57 1010.3
20260506131528 22 180 14.5 24.1 0.00 0.46 0.05 57 1010.3
20260506131029 22 193 14.5 22.5 0.00 0.46 0.05 58 1010.4
20260506130528 22 168 9.7 19.3 0.00 0.46 0.05 58 1010.5
20260506130040 22 106 14.5 22.5 0.00 0.46 0.05 59 1010.5
20260506125529 22 140 11.3 14.5 0.00 0.46 0.05 59 1010.5
20260506125029 22 141 9.7 19.3 0.00 0.46 0.05 60 1010.6
20260506124528 22 164 3.2 9.7 0.00 0.46 0.05 61 1010.7
20260506123529 21 229 0.0 3.2 0.00 0.46 0.05 61 1010.8
20260506123034 21 210 1.6 8.0 0.00 0.46 0.05 61 1010.8
20260506122528 21 163 3.2 9.7 0.00 0.46 0.05 61 1010.8
20260506122030 21 198 6.4 9.7 0.00 0.46 0.05 61 1010.8
20260506121029 21 206 4.8 11.3 0.00 0.46 0.05 62 1010.8
20260506120528 21 189 8.0 12.9 0.00 0.46 0.05 61 1010.8
20260506120029 21 195 6.4 11.3 0.00 0.46 0.05 62 1010.9
20260506114528 21 189 12.9 19.3 0.00 0.46 0.05 63 1010.9
20260506113528 21 170 14.5 25.7 0.00 0.46 0.05 64 1010.8
20260506113032 21 182 19.3 25.7 0.00 0.46 0.05 63 1010.9
20260506112528 20 202 14.5 27.4 0.00 0.46 0.05 64 1010.9
20260506112029 20 202 19.3 27.4 0.00 0.46 0.05 65 1011.0
20260506111528 20 164 14.5 20.9 0.00 0.46 0.05 65 1011.1
20260506111030 20 161 11.3 22.5 0.00 0.46 0.05 66 1011.0
20260506110531 20 160 9.7 20.9 0.00 0.46 0.05 66 1011.3
20260506105531 20 189 11.3 16.1 0.00 0.46 0.05 66 1011.4
20260506105033 20 167 14.5 19.3 0.00 0.46 0.05 65 1011.3
20260506104529 20 202 8.0 16.1 0.00 0.46 0.05 66 1011.4
20260506104030 20 158 6.4 12.9 0.00 0.46 0.05 66 1011.3
20260506103029 20 191 9.7 12.9 0.00 0.46 0.05 66 1011.3
20260506102528 20 168 8.0 19.3 0.00 0.46 0.05 66 1011.4
20260506102029 20 156 9.7 16.1 0.00 0.46 0.05 66 1011.4
20260506101530 20 166 11.3 19.3 0.00 0.46 0.05 66 1011.4
20260506101031 20 174 9.7 19.3 0.00 0.46 0.05 66 1011.4
20260506100034 20 156 8.0 16.1 0.00 0.46 0.05 66 1011.2
20260506095528 20 131 6.4 19.3 0.00 0.46 0.05 66 1011.2
20260506095034 20 169 4.8 11.3 0.00 0.46 0.05 67 1011.3
20260506094531 20 135 4.8 14.5 0.00 0.46 0.05 67 1011.3
20260506094029 20 338 4.8 9.7 0.00 0.46 0.05 67 1011.3
20260506093528 20 185 9.7 12.9 0.00 0.46 0.05 67 1011.3
20260506093030 20 143 8.0 14.5 0.00 0.46 0.05 68 1011.4
20260506092528 20 135 1.6 9.7 0.00 0.46 0.05 69 1011.4
20260506092029 20 225 4.8 8.0 0.00 0.46 0.05 69 1011.4
20260506091528 20 203 8.0 12.9 0.00 0.46 0.05 69 1011.4
20260506090530 20 162 9.7 12.9 0.00 0.46 0.05 70 1011.3
20260506085528 19 215 1.6 9.7 0.00 0.46 0.05 70 1011.3
20260506084033 18 180 11.3 19.3 0.00 0.46 0.05 71 1011.2